| time (UTC) | temp F | wind direction | speed knots | gust knots | rain 1hr in | rain 24hr in | rain mn in | humidity % | barometer mb |
| 20260507042517 | 48 | 45 | 5.2 | 10.4 | 0.00 | 0.00 | 0.00 | 61 | 1022.5 |
| 20260507041517 | 49 | 23 | 2.6 | 9.6 | 0.00 | 0.00 | 0.00 | 59 | 1022.4 |
| 20260507040517 | 49 | 45 | 3.5 | 10.4 | 0.00 | 0.00 | 0.00 | 59 | 1022.4 |
| 20260507035518 | 49 | 45 | 4.3 | 12.2 | 0.00 | 0.00 | 0.00 | 58 | 1021.8 |
| 20260507034517 | 50 | 45 | 5.2 | 13.0 | 0.00 | 0.00 | 0.00 | 57 | 1022.1 |
| 20260507033517 | 50 | 45 | 5.2 | 13.0 | 0.00 | 0.00 | 0.00 | 57 | 1022.0 |
| 20260507032517 | 51 | 45 | 4.3 | 11.3 | 0.00 | 0.00 | 0.00 | 57 | 1021.8 |
| 20260507031518 | 51 | 45 | 4.3 | 11.3 | 0.00 | 0.00 | 0.00 | 56 | 1021.7 |
| 20260507030517 | 52 | 45 | 4.3 | 9.6 | 0.00 | 0.00 | 0.00 | 55 | 1021.2 |
| 20260507025517 | 52 | 45 | 4.3 | 10.4 | 0.00 | 0.00 | 0.00 | 54 | 1021.0 |
| 20260507024517 | 53 | 23 | 3.5 | 10.4 | 0.00 | 0.00 | 0.00 | 54 | 1021.0 |
| 20260507023517 | 53 | 23 | 5.2 | 13.9 | 0.00 | 0.00 | 0.00 | 53 | 1020.4 |
| 20260507022517 | 54 | 23 | 6.1 | 13.9 | 0.00 | 0.00 | 0.00 | 52 | 1020.2 |
| 20260507021517 | 54 | 23 | 3.5 | 11.3 | 0.00 | 0.00 | 0.00 | 52 | 1019.8 |
| 20260507020517 | 55 | 45 | 3.5 | 13.0 | 0.00 | 0.00 | 0.00 | 52 | 1019.7 |
| 20260507015517 | 55 | 23 | 2.6 | 7.0 | 0.00 | 0.00 | 0.00 | 53 | 1018.9 |
| 20260507014517 | 55 | 45 | 2.6 | 7.8 | 0.00 | 0.00 | 0.00 | 52 | 1018.9 |
| 20260507013517 | 55 | 68 | 1.7 | 7.8 | 0.00 | 0.00 | 0.00 | 52 | 1018.7 |
| 20260507012517 | 56 | 90 | 1.7 | 5.2 | 0.00 | 0.00 | 0.00 | 51 | 1018.0 |
| 20260507011517 | 56 | 45 | 1.7 | 4.3 | 0.00 | 0.00 | 0.00 | 50 | 1017.5 |
| 20260507010517 | 57 | 113 | 1.7 | 7.0 | 0.00 | 0.00 | 0.00 | 50 | 1017.4 |
| 20260507005517 | 58 | 135 | 1.7 | 6.1 | 0.00 | 0.00 | 0.00 | 49 | 1017.1 |
| 20260507004517 | 58 | 135 | 0.9 | 3.5 | 0.00 | 0.00 | 0.00 | 49 | 1016.9 |
| 20260507003519 | 58 | 68 | 0.9 | 4.3 | 0.00 | 0.00 | 0.00 | 48 | 1017.0 |
| 20260507002517 | 59 | 113 | 1.7 | 9.6 | 0.00 | 0.00 | 0.00 | 47 | 1017.0 |
| 20260507001517 | 60 | 135 | 1.7 | 5.2 | 0.00 | 0.00 | 0.00 | 46 | 1017.0 |
| 20260507000517 | 60 | 135 | 3.5 | 9.6 | 0.00 | 0.00 | 0.00 | 46 | 1017.0 |
| 20260506235519 | 60 | 135 | 4.3 | 10.4 | 0.00 | 0.00 | 0.00 | 46 | 1016.5 |
| 20260506234519 | 61 | 135 | 3.5 | 11.3 | 0.00 | 0.00 | 0.00 | 45 | 1016.6 |
| 20260506233517 | 61 | 135 | 2.6 | 9.6 | 0.00 | 0.00 | 0.00 | 45 | 1016.5 |
| 20260506232517 | 62 | 135 | 1.7 | 5.2 | 0.00 | 0.00 | 0.00 | 44 | 1016.6 |
| 20260506231519 | 62 | 135 | 2.6 | 7.8 | 0.00 | 0.00 | 0.00 | 44 | 1016.8 |
| 20260506230519 | 62 | 135 | 2.6 | 6.1 | 0.00 | 0.00 | 0.00 | 45 | 1016.7 |
| 20260506225517 | 62 | 158 | 2.6 | 6.1 | 0.00 | 0.00 | 0.00 | 45 | 1016.7 |
| 20260506224517 | 63 | 45 | 2.6 | 11.3 | 0.00 | 0.00 | 0.00 | 44 | 1016.9 |
| 20260506223519 | 63 | 158 | 1.7 | 6.1 | 0.00 | 0.00 | 0.00 | 44 | 1016.9 |
| 20260506222519 | 63 | 45 | 1.7 | 6.1 | 0.00 | 0.00 | 0.00 | 44 | 1017.0 |
| 20260506221519 | 63 | 113 | 2.6 | 7.8 | 0.00 | 0.00 | 0.00 | 44 | 1017.4 |
| 20260506220518 | 63 | 113 | 1.7 | 5.2 | 0.00 | 0.00 | 0.00 | 44 | 1017.5 |
| 20260506215518 | 63 | 113 | 1.7 | 7.8 | 0.00 | 0.00 | 0.00 | 44 | 1017.4 |
| 20260506214517 | 63 | 113 | 2.6 | 7.8 | 0.00 | 0.00 | 0.00 | 44 | 1017.6 |
| 20260506213519 | 64 | 135 | 3.5 | 11.3 | 0.00 | 0.00 | 0.00 | 42 | 1017.7 |
| 20260506212517 | 65 | 90 | 2.6 | 7.0 | 0.00 | 0.00 | 0.00 | 42 | 1017.7 |
| 20260506211518 | 64 | 45 | 2.6 | 8.7 | 0.00 | 0.00 | 0.00 | 43 | 1017.8 |
| 20260506210519 | 63 | 90 | 1.7 | 5.2 | 0.00 | 0.00 | 0.00 | 45 | 1017.6 |
| 20260506205519 | 62 | 135 | 2.6 | 7.0 | 0.00 | 0.00 | 0.00 | 44 | 1017.6 |
| 20260506204519 | 64 | 113 | 1.7 | 7.8 | 0.00 | 0.00 | 0.00 | 42 | 1017.9 |
| 20260506203519 | 63 | 135 | 3.5 | 8.7 | 0.00 | 0.00 | 0.00 | 44 | 1017.8 |
| 20260506202518 | 64 | 135 | 2.6 | 7.0 | 0.00 | 0.00 | 0.00 | 41 | 1017.6 |
| 20260506201519 | 65 | 45 | 1.7 | 5.2 | 0.00 | 0.00 | 0.00 | 42 | 1017.8 |
| 20260506200518 | 64 | 113 | 2.6 | 8.7 | 0.00 | 0.00 | 0.00 | 43 | 1017.7 |
| 20260506195518 | 63 | 113 | 2.6 | 7.0 | 0.00 | 0.00 | 0.00 | 43 | 1017.5 |
| 20260506194518 | 64 | 135 | 1.7 | 7.0 | 0.00 | 0.00 | 0.00 | 42 | 1017.4 |
| 20260506193518 | 63 | 90 | 1.7 | 5.2 | 0.00 | 0.00 | 0.00 | 45 | 1017.7 |
| 20260506192518 | 61 | 135 | 1.7 | 5.2 | 0.00 | 0.00 | 0.00 | 47 | 1017.7 |
| 20260506191519 | 64 | 135 | 3.5 | 8.7 | 0.00 | 0.00 | 0.00 | 43 | 1017.8 |
| 20260506190518 | 62 | 113 | 1.7 | 10.4 | 0.00 | 0.00 | 0.00 | 46 | 1018.2 |
| 20260506185518 | 61 | 23 | 3.5 | 10.4 | 0.00 | 0.00 | 0.00 | 45 | 1017.9 |
| 20260506184519 | 63 | 68 | 0.9 | 4.3 | 0.00 | 0.00 | 0.00 | 44 | 1018.3 |
| 20260506183518 | 63 | 45 | 1.7 | 5.2 | 0.00 | 0.00 | 0.00 | 44 | 1018.3 |
| 20260506182518 | 61 | 45 | 1.7 | 4.3 | 0.00 | 0.00 | 0.00 | 47 | 1018.2 |
| 20260506181623 | 60 | 135 | 1.7 | 7.0 | 0.00 | 0.00 | 0.00 | 48 | 1018.3 |
| 20260506180518 | 60 | 113 | 1.7 | 4.3 | 0.00 | 0.00 | 0.00 | 49 | 1018.5 |
| 20260506175518 | 60 | 45 | 1.7 | 5.2 | 0.00 | 0.00 | 0.00 | 51 | 1018.6 |
| 20260506174518 | 59 | 23 | 2.6 | 7.8 | 0.00 | 0.00 | 0.00 | 49 | 1018.8 |
| 20260506173518 | 59 | 135 | 2.6 | 8.7 | 0.00 | 0.00 | 0.00 | 49 | 1018.8 |
| 20260506172518 | 57 | 113 | 1.7 | 6.1 | 0.00 | 0.00 | 0.00 | 54 | 1018.6 |
| 20260506171518 | 56 | 135 | 1.7 | 5.2 | 0.00 | 0.00 | 0.00 | 54 | 1018.2 |
| 20260506170518 | 56 | 135 | 2.6 | 7.8 | 0.00 | 0.00 | 0.00 | 54 | 1018.4 |
| 20260506165518 | 55 | 113 | 3.5 | 7.0 | 0.00 | 0.00 | 0.00 | 55 | 1018.1 |
| 20260506164518 | 54 | 135 | 0.9 | 4.3 | 0.00 | 0.00 | 0.00 | 58 | 1018.3 |
| 20260506163518 | 53 | 135 | 2.6 | 6.1 | 0.00 | 0.00 | 0.00 | 57 | 1018.3 |
| 20260506162518 | 53 | 113 | 0.9 | 4.3 | 0.00 | 0.00 | 0.00 | 58 | 1018.2 |
| 20260506161518 | 53 | 158 | 1.7 | 3.5 | 0.00 | 0.00 | 0.00 | 57 | 1018.0 |
| 20260506161220 | 53 | 158 | 0.9 | 3.5 | 0.00 | 0.00 | 0.00 | 58 | 1017.8 |
| 20260506154018 | 50 | 0.0 | 1.7 | 0.00 | 0.00 | 0.00 | 62 | 1017.5 | |
| 20260506153018 | 50 | 135 | 1.7 | 6.1 | 0.00 | 0.00 | 0.00 | 62 | 1017.5 |
| 20260506152018 | 49 | 135 | 1.7 | 6.1 | 0.00 | 0.00 | 0.00 | 63 | 1017.0 |
| 20260506151018 | 49 | 135 | 2.6 | 7.0 | 0.00 | 0.00 | 0.00 | 63 | 1017.2 |
| 20260506150018 | 48 | 0.0 | 2.6 | 0.00 | 0.00 | 0.00 | 64 | 1017.0 | |
| 20260506145018 | 48 | 135 | 1.7 | 3.5 | 0.00 | 0.00 | 0.00 | 64 | 1017.1 |
| 20260506144018 | 47 | 135 | 0.9 | 4.3 | 0.00 | 0.00 | 0.00 | 66 | 1016.6 |
| 20260506143018 | 46 | 113 | 2.6 | 7.0 | 0.00 | 0.00 | 0.00 | 66 | 1016.5 |
| 20260506142018 | 46 | 135 | 2.6 | 7.0 | 0.00 | 0.00 | 0.00 | 67 | 1016.3 |
| 20260506141018 | 46 | 135 | 3.5 | 7.8 | 0.00 | 0.00 | 0.00 | 67 | 1016.2 |
| 20260506140017 | 45 | 135 | 3.5 | 9.6 | 0.00 | 0.00 | 0.00 | 67 | 1016.2 |
| 20260506135018 | 45 | 135 | 5.2 | 10.4 | 0.00 | 0.00 | 0.00 | 68 | 1016.3 |
| 20260506134018 | 45 | 135 | 4.3 | 8.7 | 0.00 | 0.00 | 0.00 | 68 | 1016.5 |
| 20260506133017 | 44 | 135 | 1.7 | 7.8 | 0.00 | 0.00 | 0.00 | 69 | 1016.5 |
| 20260506132017 | 44 | 113 | 3.5 | 7.8 | 0.00 | 0.00 | 0.00 | 69 | 1016.5 |
| 20260506131018 | 43 | 113 | 3.5 | 8.7 | 0.00 | 0.00 | 0.00 | 70 | 1016.6 |
| 20260506130018 | 43 | 113 | 2.6 | 7.8 | 0.00 | 0.00 | 0.00 | 70 | 1017.1 |
| 20260506125017 | 43 | 113 | 4.3 | 8.7 | 0.00 | 0.00 | 0.00 | 70 | 1017.0 |
| 20260506124017 | 43 | 113 | 2.6 | 4.3 | 0.00 | 0.00 | 0.00 | 72 | 1016.9 |
| 20260506123018 | 42 | 135 | 2.6 | 6.1 | 0.00 | 0.00 | 0.00 | 72 | 1016.9 |
| 20260506122018 | 42 | 135 | 1.7 | 7.8 | 0.00 | 0.00 | 0.00 | 72 | 1017.0 |
| 20260506121017 | 42 | 135 | 2.6 | 7.8 | 0.00 | 0.00 | 0.00 | 72 | 1016.5 |
| 20260506120017 | 42 | 135 | 2.6 | 7.0 | 0.00 | 0.00 | 0.00 | 72 | 1016.5 |
| 20260506115018 | 42 | 135 | 3.5 | 8.7 | 0.00 | 0.00 | 0.00 | 73 | 1016.1 |
| 20260506114018 | 42 | 135 | 3.5 | 8.7 | 0.00 | 0.00 | 0.00 | 74 | 1016.2 |
| 20260506113018 | 42 | 135 | 2.6 | 7.0 | 0.00 | 0.00 | 0.00 | 78 | 1016.0 |
| 20260506112017 | 41 | 135 | 1.7 | 6.1 | 0.00 | 0.00 | 0.00 | 80 | 1015.9 |
| 20260506111017 | 41 | 135 | 2.6 | 10.4 | 0.00 | 0.00 | 0.00 | 81 | 1015.8 |
| 20260506110017 | 41 | 135 | 2.6 | 7.0 | 0.00 | 0.00 | 0.00 | 82 | 1016.0 |
| 20260506105017 | 42 | 135 | 2.6 | 7.8 | 0.00 | 0.00 | 0.00 | 82 | 1016.2 |
| 20260506104017 | 42 | 113 | 1.7 | 6.1 | 0.00 | 0.00 | 0.00 | 81 | 1016.2 |
| 20260506103017 | 43 | 135 | 3.5 | 8.7 | 0.00 | 0.00 | 0.00 | 79 | 1016.1 |
| 20260506102017 | 44 | 113 | 1.7 | 6.1 | 0.00 | 0.00 | 0.00 | 78 | 1016.3 |
| 20260506101017 | 44 | 113 | 0.9 | 3.5 | 0.00 | 0.00 | 0.00 | 78 | 1016.1 |
| 20260506100057 | 44 | 68 | 0.9 | 4.3 | 0.00 | 0.00 | 0.00 | 78 | 1015.8 |
| 20260506095517 | 44 | 135 | 0.9 | 3.5 | 0.00 | 0.00 | 0.00 | 78 | 1015.7 |
| 20260506094517 | 44 | 135 | 0.9 | 3.5 | 0.00 | 0.00 | 0.00 | 78 | 1015.8 |
| 20260506093517 | 45 | 113 | 0.9 | 3.5 | 0.00 | 0.00 | 0.00 | 77 | 1015.4 |
| 20260506092517 | 45 | 135 | 1.7 | 4.3 | 0.00 | 0.00 | 0.00 | 77 | 1015.1 |
| 20260506091517 | 45 | 158 | 0.9 | 3.5 | 0.00 | 0.00 | 0.00 | 77 | 1015.2 |
| 20260506090517 | 45 | 113 | 1.7 | 6.1 | 0.00 | 0.00 | 0.00 | 76 | 1014.9 |
| 20260506085517 | 45 | 135 | 0.9 | 3.5 | 0.00 | 0.00 | 0.00 | 76 | 1015.0 |
| 20260506084517 | 45 | 113 | 0.9 | 4.3 | 0.00 | 0.00 | 0.00 | 75 | 1015.4 |
| 20260506083517 | 45 | 135 | 1.7 | 4.3 | 0.00 | 0.00 | 0.00 | 75 | 1015.4 |
| 20260506082517 | 45 | 135 | 1.7 | 4.3 | 0.00 | 0.00 | 0.00 | 76 | 1014.8 |
| 20260506081517 | 44 | 135 | 0.9 | 3.5 | 0.00 | 0.00 | 0.00 | 76 | 1014.5 |
| 20260506080517 | 44 | 135 | 0.9 | 2.6 | 0.00 | 0.00 | 0.00 | 77 | 1014.8 |
| 20260506073517 | 43 | 113 | 0.9 | 3.5 | 0.00 | 0.00 | 0.00 | 76 | 1013.8 |
| 20260506072517 | 44 | 135 | 2.6 | 7.0 | 0.00 | 0.00 | 0.00 | 76 | 1013.7 |
| 20260506071519 | 44 | 113 | 1.7 | 3.5 | 0.00 | 0.00 | 0.00 | 75 | 1014.1 |
| 20260506070519 | 44 | 90 | 0.9 | 3.5 | 0.00 | 0.00 | 0.00 | 75 | 1014.7 |
| 20260506061519 | 44 | 68 | 0.9 | 3.5 | 0.00 | 0.00 | 0.00 | 75 | 1014.0 |
| 20260506060517 | 44 | 113 | 1.7 | 5.2 | 0.00 | 0.00 | 0.00 | 74 | 1013.6 |
| 20260506050519 | 46 | 158 | 1.7 | 3.5 | 0.00 | 0.00 | 0.00 | 70 | 1012.9 |
| 20260506045018 | 46 | 113 | 2.6 | 10.4 | 0.00 | 0.00 | 0.00 | 69 | 1012.2 |
| 20260506044017 | 47 | 135 | 2.6 | 7.8 | 0.00 | 0.00 | 0.00 | 68 | 1012.2 |